Skip Page Navigation
NASA JPL Caltech
NASA Logo - Jet Propulsion Laboratory + View the NASA Portal
+ Center for Near-Earth Object Studies
JPL Home Earth Solar System Stars & Galaxies Technology
JPL Solar System Dynamics
BODIES ORBITS EPHEMERIDES TOOLS PHYSICAL DATA DISCOVERY FAQ SITE MAP
IMPORTANT: The SSD Announcement email list is now available. Major changes are coming in the near future, including possible hostname and/or URL changes. To be notified of such changes, subscribe to this email list.

Please visit this page for more details.


JPL Small-Body Database Browser
Search: [ help ]  
6205 Menottigalli (1983 OD)
Classification: Main-belt Asteroid          SPK-ID: 2006205
Ephemeris | Orbit Diagram | Orbital Elements | Mission Design | Physical Parameters | Discovery Circumstances | Close-Approach Data ]

[ show orbit diagram ]
Orbital Elements at Epoch 2458600.5 (2019-Apr-27.0) TDB
Reference: JPL 30 (heliocentric ecliptic J2000)
 Element Value Uncertainty (1-sigma)   Units 
e .2328571043492617 2.9752e-08  
a 2.364691308432121 7.8497e-09 au
q 1.81405613767075 7.1784e-08 au
i 13.80764558889553 3.5767e-06 deg
node 131.8510363482748 1.5399e-05 deg
peri 215.5943412343268 1.7288e-05 deg
M 280.5640179389155 8.8596e-06 deg
tp 2458893.572370976444
(2020-Feb-14.07237098)
3.3092e-05 TDB
period 1328.189704640248
3.64
6.6135e-06
1.811e-08
d
yr
n .2710456185153982 1.3496e-09 deg/d
Q 2.915326479193492 9.6776e-09 au
  Orbit Determination Parameters
   # obs. used (total)      1829  
   data-arc span      13212 days (36.17 yr)  
   first obs. used      1983-07-17  
   last obs. used      2019-09-18  
   planetary ephem.      DE431  
   SB-pert. ephem.      SB431-N16  
   condition code      0  
   norm. resid. RMS      .45769  
   source      ORB  
   producer      Otto Matic  
   solution date      2019-Sep-24 00:53:30  

Additional Information
 Earth MOID = .821237 au 
 Jupiter MOID = 2.51651 au 
 T_jup = 3.474 
[ show covariance matrix ]

Ephemeris | Orbit Diagram | Orbital Elements | Mission Design | Physical Parameters | Discovery Circumstances | Close-Approach Data ]

Physical Parameter Table
Parameter Symbol Value Units Sigma Reference Notes
absolute magnitude H 13.5   n/a MPO435758  
diameter diameter 8.209 km 0.138 urn:nasa:pds:neowise_diameters_albedos::2.0[mainbelt] (http://adsabs.harvard.edu/abs/2011ApJ...741...68M)  
geometric albedo albedo 0.121   0.008 urn:nasa:pds:neowise_diameters_albedos::2.0[mainbelt] (http://adsabs.harvard.edu/abs/2011ApJ...741...68M)  

6205 Menottigalli           Discovered 1983 July 17 by E. Bowell at the Anderson Mesa Station of Lowell Observatory.
Named in honor of Menotti Galli (b. 1922), a physicist at the University of Bologna. Galli's research activity began with the study of cosmic rays and meteorites and was subsequently extended to the physics of the sun and the heliosphere. He has studied sun-earth relationships, cosmogenic isotopes and radiocarbon in tree rings. He suggested searching for microparticles embedded in the resin of trees surviving the Tunguska explosion, and he participated in the 1991 expedition to collect the necessary wood samples, with the result that a group of elements was identified as possible constituents of the Tunguska body. Name suggested and citation provided by M. di Martino.
NOTE: some special characters may not display properly (any characters within {} are an attempt to place the proper accent above a character)
Reference: 19990202/MPCPages.arcLast Updated: 2010-06-11

[ show close-approach data ]
Ephemeris | Orbit Diagram | Orbital Elements | Mission Design | Physical Parameters | Discovery Circumstances | Close-Approach Data ]
ABOUT SSD CREDITS/AWARDS PRIVACY/COPYRIGHT GLOSSARY LINKS
FirstGov
(server date/time)  
NASA Home Page
Site Manager:   Ryan S. Park
Webmaster  Alan B. Chamberlin